Location: Prague
(50.0830°N, 14.4670°E)
Time: 06:23:03
(UTC+02:00)

DOVE 4 - Pass Details

Date: 05 April 2023
Orbit: 584 x 791 km, 97.8° (Epoch: 29 May)

Event Time Altitude Azimuth Distance (km) Brightness Sun altitude
Rises 01:00:52 0° 6° (N) 3,125 ? -34.0°
Reaches altitude 10° 01:03:26 10° 355° (N) 2,164 ? -34.0°
Enters shadow 01:06:01 24° 327° (NNW) 1,407 ? -34.0°
